Location: Mount Tamalpais State Park
(37.9108°N, 122.6128°W)
Time: 11:09:09
(UTC-07:00)

Daily predictions for brighter satellites

Satellite Brightness Start Highest point End
(mag) Time Altitude Azimuth Time Altitude Azimuth Time Altitude Azimuth
Cosmos 2074 Rocket 4.4 19:18:19 10° SSE 19:24:02 41° E 19:29:47 10° NNE
FREGAT/IRIS 3.9 19:26:20 10° SE 19:28:45 22° ENE 19:31:10 10° NNE
Cosmos 1709 Rocket 4.5 19:24:12 10° SSW 19:30:32 72° W 19:36:56 10° N
Cosmos 1606 Rocket 4.2 19:26:36 10° SSW 19:30:54 62° W 19:35:11 10° N
FALCON 9 R/B 1.4 19:29:08 10° WSW 19:31:28 45° S 19:35:58 10° E
SKYMED 2 4.2 19:29:55 10° N 19:34:13 62° WNW 19:38:29 10° SSW
Cosmos 1953 Rocket 3.7 19:32:23 10° N 19:36:43 78° W 19:41:01 10° S
Cosmos 1943 Rocket 3.6 19:35:00 10° NW 19:40:14 42° WSW 19:45:29 10° S
Cosmos 2058 Rocket 3.1 19:37:08 10° S 19:41:28 83° W 19:45:53 10° N
Cosmos 1340 Rocket 3.9 19:37:40 10° NNW 19:41:39 51° W 19:45:36 10° S
Resurs 01 Rocket 3.3 19:39:30 11° E 19:41:50 15° ENE 19:44:21 10° NNE
Thor Agena Rocket 3.5 19:38:24 10° NNE 19:43:37 66° ESE 19:48:43 10° S
USA 234 3.5 19:42:19 10° SE 19:48:51 73° SW 19:55:25 10° NW
Cosmos 372 Rocket 4.4 19:51:25 10° N 19:56:24 42° ENE 20:01:20 10° SE
Cosmos 1125 Rocket 3.7 19:56:45 10° N 20:01:57 54° ENE 20:07:07 10° SE
Cosmos 2184 Rocket 4.0 19:57:50 10° S 20:04:10 86° E 20:10:33 10° N
Geosat 3.9 20:00:54 10° SE 20:05:53 72° ENE 20:10:55 10° NNW
Envisat 4.1 20:04:28 19° E 20:06:28 25° ENE 20:10:32 10° NNE
Meteor 1-24 Rocket 3.7 20:01:10 10° N 20:07:08 83° E 20:12:51 10° S
Cosmos 1544 2.9 20:06:17 10° S 20:09:52 88° E 20:13:30 10° N
Cosmos 1656 Rocket 4.3 20:04:41 10° NNW 20:10:11 57° WSW 20:15:35 10° S
H-2A R/B 2.5 20:06:55 10° SSE 20:10:37 77° ENE 20:14:23 10° N
SJ-6B 2.7 20:09:12 10° SSE 20:13:11 72° ENE 20:17:05 10° N
FENGYUN 3A 4.2 20:08:08 10° S 20:13:25 60° W 20:18:44 10° NNW
Cosmos 1953 2.8 20:15:04 10° SSE 20:18:48 38° E 20:22:35 10° NNE
SL-27 R/B 2.4 20:18:20 10° SSW 20:21:55 81° ESE 20:25:34 10° NNE
ATLAS 2AS CENTAUR R/B 3.9 20:18:00 10° NNW 20:24:55 30° NE 20:28:02 23° E
Cosmos 540 Rocket 4.2 20:23:56 10° SW 20:28:54 53° WNW 20:33:55 10° N
HJ-1C 3.6 20:26:55 13° S 20:29:51 70° W 20:33:12 10° NNW
Cosmos 292 Rocket 3.6 20:26:32 10° S 20:31:20 73° ESE 20:36:13 10° NNE
Elektron 1 4.1 20:29:14 10° NNW 20:32:01 47° NNE 20:32:01 47° NNE
NOSS 3-1 (A) 4.5 20:26:54 10° NW 20:34:37 65° WSW 20:43:01 10° SSE
Cosmos 1674 3.1 20:32:38 10° N 20:35:35 41° NE 20:35:35 41° NE
SJ 16-02 1.2 20:33:02 10° NNW 20:37:26 78° ENE 20:39:03 38° SSE
Cosmos 962 Rocket 4.4 20:36:12 10° S 20:42:28 68° E 20:48:48 10° NNE
NOSS 3-3 (A) 4.3 20:37:13 10° S 20:42:46 40° ESE 20:43:28 39° E
NOSS 3-3 (C) 4.3 20:37:21 10° S 20:42:52 39° ESE 20:43:20 39° ESE
ISS -2.2 20:42:03 10° W 20:45:01 31° NNW 20:45:56 26° N
Resurs 1-3 3.4 20:48:03 59° SE 20:48:48 75° ENE 20:53:11 10° N
Cosmos 1833 Rocket 4.4 20:50:05 10° S 21:01:49 - NNE 20:51:29 18° S
ATLAS CENTAUR R/B 4.1 20:46:48 10° NW 20:56:54 40° WSW 20:59:51 19° S
Cosmos 2369 3.8 20:52:17 10° NNW 20:57:49 53° ENE 20:58:04 52° ENE
Cosmos 1758 4.5 21:00:46 10° SSW 21:04:36 43° W 21:08:25 10° N
Spot 2 Rocket 3.6 21:11:25 52° SSW 21:12:34 71° WSW 21:17:35 10° NNW
Meteor 1-21 Rocket 4.3 21:09:05 10° NNW 21:14:46 72° W 21:16:39 43° SSW
Resurs 01 Rocket 2.5 21:17:05 41° SW 21:17:53 46° W 21:22:09 10° NNW
MOS 1-B Rocket 4.2 21:18:11 31° S 21:21:08 65° WSW 21:26:46 10° NNW
Cosmos 2082 Rocket 3.9 21:16:11 10° SSW 21:27:22 11° NNE 21:27:31 10° NNE
ATLAS 5 CENTAUR R/B 3.6 21:19:43 10° SW 21:21:05 20° SW 21:21:05 20° SW
Meteor 2-21 4.4 21:22:05 28° SSW 21:25:30 81° W 21:31:39 10° N
Cosmos 2278 3.8 21:25:53 10° NNW 21:31:01 73° NW 21:31:01 73° NW
Cosmos 1656 4.1 21:34:35 10° NNW 21:39:02 56° NNW 21:39:02 56° NNW
Cosmos 2366 rocket 4.5 21:43:43 52° N 21:43:43 52° N 21:48:19 10° N
Envisat 4.3 21:44:41 34° WSW 21:45:16 35° W 21:49:56 10° NNW
Cosmos 1697 Rocket 3.7 21:42:51 10° NNW 21:46:27 40° N 21:46:27 40° N
Cosmos 2218 Rocket 4.3 21:49:34 62° NNW 21:49:34 62° NNW 21:54:53 10° N
Milstar 3 Cent rocket 4.2 21:46:50 10° WSW 21:47:58 16° SW 21:47:58 16° SW
Cosmos 1980 Rocket 3.8 21:45:35 10° N 21:48:10 26° N 21:48:10 26° N
ATLAS 2AS CENTAUR R/B 3.3 22:08:43 10° NW 22:15:29 61° WNW 22:15:29 61° WNW
